owner,sensor,date,latitude,longitude,relative_humidity,qcFlag 
DISL,ioos:station:DISL:PPTA:1,2017-07-01T00:00:00Z,30.2791,-87.5561,73.71,1111122 
DISL,ioos:station:DISL:PPTA:1,2017-07-01T00:30:00Z,30.2791,-87.5561,77.37,1111122 
DISL,ioos:station:DISL:PPTA:1,2017-07-01T01:00:00Z,30.2791,-87.5561,77.96,1111122 
DISL,ioos:station:DISL:PPTA:1,2017-07-01T01:30:00Z,30.2791,-87.5561,77.56,1111122 
DISL,ioos:station:DISL:PPTA:1,2017-07-01T02:00:00Z,30.2791,-87.5561,77.61,1111122 
DISL,ioos:station:DISL:PPTA:1,2017-07-01T02:30:00Z,30.2791,-87.5561,78.36,1111122 
DISL,ioos:station:DISL:PPTA:1,2017-07-01T03:00:00Z,30.2791,-87.5561,77.74,1111122 
DISL,ioos:station:DISL:PPTA:1,2017-07-01T03:30:00Z,30.2791,-87.5561,77.78,1111122 
DISL,ioos:station:DISL:PPTA:1,2017-07-01T04:00:00Z,30.2791,-87.5561,79.48,1111122 
DISL,ioos:station:DISL:PPTA:1,2017-07-01T04:30:00Z,30.2791,-87.5561,80.0,1111122 
DISL,ioos:station:DISL:PPTA:1,2017-07-01T05:00:00Z,30.2791,-87.5561,82.7,1111122 
DISL,ioos:station:DISL:PPTA:1,2017-07-01T05:30:00Z,30.2791,-87.5561,81.5,1111122 
DISL,ioos:station:DISL:PPTA:1,2017-07-01T06:00:00Z,30.2791,-87.5561,82.6,1111122 
DISL,ioos:station:DISL:PPTA:1,2017-07-01T06:30:00Z,30.2791,-87.5561,81.2,1111122 
DISL,ioos:station:DISL:PPTA:1,2017-07-01T07:00:00Z,30.2791,-87.5561,80.9,1111122 
DISL,ioos:station:DISL:PPTA:1,2017-07-01T07:30:00Z,30.2791,-87.5561,80.0,1111122 
DISL,ioos:station:DISL:PPTA:1,2017-07-01T08:00:00Z,30.2791,-87.5561,80.4,1111122 
DISL,ioos:station:DISL:PPTA:1,2017-07-01T08:30:00Z,30.2791,-87.5561,80.7,1111122 
DISL,ioos:station:DISL:PPTA:1,2017-07-01T09:00:00Z,30.2791,-87.5561,80.8,1111122 
DISL,ioos:station:DISL:PPTA:1,2017-07-01T09:30:00Z,30.2791,-87.5561,82.4,1111122 
DISL,ioos:station:DISL:PPTA:1,2017-07-01T10:00:00Z,30.2791,-87.5561,86.5,1111122 
DISL,ioos:station:DISL:PPTA:1,2017-07-01T10:30:00Z,30.2791,-87.5561,87.8,1111122 
DISL,ioos:station:DISL:PPTA:1,2017-07-01T11:00:00Z,30.2791,-87.5561,87.6,1111122 
DISL,ioos:station:DISL:PPTA:1,2017-07-01T11:30:00Z,30.2791,-87.5561,86.5,1111122 
DISL,ioos:station:DISL:PPTA:1,2017-07-01T12:00:00Z,30.2791,-87.5561,83.4,1111122 
DISL,ioos:station:DISL:PPTA:1,2017-07-01T12:30:00Z,30.2791,-87.5561,81.1,1111122 
DISL,ioos:station:DISL:PPTA:1,2017-07-01T13:00:00Z,30.2791,-87.5561,78.09,1111122 
DISL,ioos:station:DISL:PPTA:1,2017-07-01T13:30:00Z,30.2791,-87.5561,80.3,1111122 
DISL,ioos:station:DISL:PPTA:1,2017-07-01T14:00:00Z,30.2791,-87.5561,74.67,1111122 
DISL,ioos:station:DISL:PPTA:1,2017-07-01T14:30:00Z,30.2791,-87.5561,72.88,1111122 
DISL,ioos:station:DISL:PPTA:1,2017-07-01T15:00:00Z,30.2791,-87.5561,77.49,1111122 
DISL,ioos:station:DISL:PPTA:1,2017-07-01T15:30:00Z,30.2791,-87.5561,79.17,1111122 
DISL,ioos:station:DISL:PPTA:1,2017-07-01T16:00:00Z,30.2791,-87.5561,75.31,1111122 
DISL,ioos:station:DISL:PPTA:1,2017-07-01T16:30:00Z,30.2791,-87.5561,88.9,1111122 
DISL,ioos:station:DISL:PPTA:1,2017-07-01T17:00:00Z,30.2791,-87.5561,86.5,1111122 
DISL,ioos:station:DISL:PPTA:1,2017-07-01T17:30:00Z,30.2791,-87.5561,83.8,1111122 
DISL,ioos:station:DISL:PPTA:1,2017-07-01T18:00:00Z,30.2791,-87.5561,77.38,1111122 
DISL,ioos:station:DISL:PPTA:1,2017-07-01T18:30:00Z,30.2791,-87.5561,69.32,1111122 
DISL,ioos:station:DISL:PPTA:1,2017-07-01T19:00:00Z,30.2791,-87.5561,68.05,1111122 
DISL,ioos:station:DISL:PPTA:1,2017-07-01T19:30:00Z,30.2791,-87.5561,63.52,1111122 
DISL,ioos:station:DISL:PPTA:1,2017-07-01T20:00:00Z,30.2791,-87.5561,62.3,1111122 
DISL,ioos:station:DISL:PPTA:1,2017-07-01T20:30:00Z,30.2791,-87.5561,59.54,1111122 
DISL,ioos:station:DISL:PPTA:1,2017-07-01T21:00:00Z,30.2791,-87.5561,69.14,1111122 
DISL,ioos:station:DISL:PPTA:1,2017-07-01T21:30:00Z,30.2791,-87.5561,67.3,1111122 
DISL,ioos:station:DISL:PPTA:1,2017-07-01T22:00:00Z,30.2791,-87.5561,65.46,1111122 
DISL,ioos:station:DISL:PPTA:1,2017-07-01T22:30:00Z,30.2791,-87.5561,63.96,1111122 
DISL,ioos:station:DISL:PPTA:1,2017-07-01T23:00:00Z,30.2791,-87.5561,70.03,1111122 
DISL,ioos:station:DISL:PPTA:1,2017-07-01T23:30:00Z,30.2791,-87.5561,71.46,1111122 
DISL,ioos:station:DISL:PPTA:1,2017-07-02T00:00:00Z,30.2791,-87.5561,71.72,1111122 
DISL,ioos:station:DISL:PPTA:1,2017-07-02T00:30:00Z,30.2791,-87.5561,75.71,1111122 
DISL,ioos:station:DISL:PPTA:1,2017-07-02T01:00:00Z,30.2791,-87.5561,75.71,1111122 
DISL,ioos:station:DISL:PPTA:1,2017-07-02T01:30:00Z,30.2791,-87.5561,75.48,1111122 
DISL,ioos:station:DISL:PPTA:1,2017-07-02T02:00:00Z,30.2791,-87.5561,72.56,1111122 
DISL,ioos:station:DISL:PPTA:1,2017-07-02T02:30:00Z,30.2791,-87.5561,71.98,1111122 
DISL,ioos:station:DISL:PPTA:1,2017-07-02T03:00:00Z,30.2791,-87.5561,71.71,1111122 
DISL,ioos:station:DISL:PPTA:1,2017-07-02T03:30:00Z,30.2791,-87.5561,72.29,1111122 
DISL,ioos:station:DISL:PPTA:1,2017-07-02T04:00:00Z,30.2791,-87.5561,74.3,1111122 
DISL,ioos:station:DISL:PPTA:1,2017-07-02T04:30:00Z,30.2791,-87.5561,77.61,1111122 
DISL,ioos:station:DISL:PPTA:1,2017-07-02T05:00:00Z,30.2791,-87.5561,78.9,1111122 
DISL,ioos:station:DISL:PPTA:1,2017-07-02T05:30:00Z,30.2791,-87.5561,79.52,1111122 
DISL,ioos:station:DISL:PPTA:1,2017-07-02T06:00:00Z,30.2791,-87.5561,79.29,1111122 
DISL,ioos:station:DISL:PPTA:1,2017-07-02T06:30:00Z,30.2791,-87.5561,83.1,1111122 
DISL,ioos:station:DISL:PPTA:1,2017-07-02T07:00:00Z,30.2791,-87.5561,86.0,1111122 
DISL,ioos:station:DISL:PPTA:1,2017-07-02T07:30:00Z,30.2791,-87.5561,84.4,1111122 
DISL,ioos:station:DISL:PPTA:1,2017-07-02T08:00:00Z,30.2791,-87.5561,85.7,1111122 
DISL,ioos:station:DISL:PPTA:1,2017-07-02T08:30:00Z,30.2791,-87.5561,83.9,1111122 
DISL,ioos:station:DISL:PPTA:1,2017-07-02T09:00:00Z,30.2791,-87.5561,83.5,1111122 
DISL,ioos:station:DISL:PPTA:1,2017-07-02T09:30:00Z,30.2791,-87.5561,84.7,1111122 
DISL,ioos:station:DISL:PPTA:1,2017-07-02T10:00:00Z,30.2791,-87.5561,84.2,1111122 
DISL,ioos:station:DISL:PPTA:1,2017-07-02T10:30:00Z,30.2791,-87.5561,83.7,1111122 
DISL,ioos:station:DISL:PPTA:1,2017-07-02T11:00:00Z,30.2791,-87.5561,83.8,1111122 
DISL,ioos:station:DISL:PPTA:1,2017-07-02T11:30:00Z,30.2791,-87.5561,81.1,1111122 
DISL,ioos:station:DISL:PPTA:1,2017-07-02T12:00:00Z,30.2791,-87.5561,81.2,1111122 
DISL,ioos:station:DISL:PPTA:1,2017-07-02T12:30:00Z,30.2791,-87.5561,80.3,1111122 
DISL,ioos:station:DISL:PPTA:1,2017-07-02T13:00:00Z,30.2791,-87.5561,78.13,1111122 
DISL,ioos:station:DISL:PPTA:1,2017-07-02T13:30:00Z,30.2791,-87.5561,78.72,1111122 
DISL,ioos:station:DISL:PPTA:1,2017-07-02T14:00:00Z,30.2791,-87.5561,78.24,1111122 
DISL,ioos:station:DISL:PPTA:1,2017-07-02T14:30:00Z,30.2791,-87.5561,76.91,1111122 
DISL,ioos:station:DISL:PPTA:1,2017-07-02T15:00:00Z,30.2791,-87.5561,76.29,1111122 
DISL,ioos:station:DISL:PPTA:1,2017-07-02T15:30:00Z,30.2791,-87.5561,75.75,1111122 
DISL,ioos:station:DISL:PPTA:1,2017-07-02T16:00:00Z,30.2791,-87.5561,72.6,1111122 
DISL,ioos:station:DISL:PPTA:1,2017-07-02T16:30:00Z,30.2791,-87.5561,70.82,1111122 
DISL,ioos:station:DISL:PPTA:1,2017-07-02T17:00:00Z,30.2791,-87.5561,74.16,1111122 
DISL,ioos:station:DISL:PPTA:1,2017-07-02T17:30:00Z,30.2791,-87.5561,73.45,1111122 
DISL,ioos:station:DISL:PPTA:1,2017-07-02T18:00:00Z,30.2791,-87.5561,74.23,1111122 
DISL,ioos:station:DISL:PPTA:1,2017-07-02T18:30:00Z,30.2791,-87.5561,73.54,1111122 
DISL,ioos:station:DISL:PPTA:1,2017-07-02T19:00:00Z,30.2791,-87.5561,69.84,1111122 
DISL,ioos:station:DISL:PPTA:1,2017-07-02T19:30:00Z,30.2791,-87.5561,67.03,1111122 
DISL,ioos:station:DISL:PPTA:1,2017-07-02T20:00:00Z,30.2791,-87.5561,70.01,1111122 
DISL,ioos:station:DISL:PPTA:1,2017-07-02T20:30:00Z,30.2791,-87.5561,66.44,1111122 
DISL,ioos:station:DISL:PPTA:1,2017-07-02T21:00:00Z,30.2791,-87.5561,60.89,1111122 
DISL,ioos:station:DISL:PPTA:1,2017-07-02T21:30:00Z,30.2791,-87.5561,61.16,1111122 
DISL,ioos:station:DISL:PPTA:1,2017-07-02T22:00:00Z,30.2791,-87.5561,60.58,1111122 
DISL,ioos:station:DISL:PPTA:1,2017-07-02T22:30:00Z,30.2791,-87.5561,60.88,1111122 
DISL,ioos:station:DISL:PPTA:1,2017-07-02T23:00:00Z,30.2791,-87.5561,64.43,1111122 
DISL,ioos:station:DISL:PPTA:1,2017-07-02T23:30:00Z,30.2791,-87.5561,67.87,1111122 
DISL,ioos:station:DISL:PPTA:1,2017-07-03T00:00:00Z,30.2791,-87.5561,70.06,1111122 
DISL,ioos:station:DISL:PPTA:1,2017-07-03T00:30:00Z,30.2791,-87.5561,74.05,1111122 
DISL,ioos:station:DISL:PPTA:1,2017-07-03T01:00:00Z,30.2791,-87.5561,78.28,1111122 
DISL,ioos:station:DISL:PPTA:1,2017-07-03T01:30:00Z,30.2791,-87.5561,80.9,1111122 
DISL,ioos:station:DISL:PPTA:1,2017-07-03T02:00:00Z,30.2791,-87.5561,81.0,1111122 
DISL,ioos:station:DISL:PPTA:1,2017-07-03T02:30:00Z,30.2791,-87.5561,82.3,1111122 
DISL,ioos:station:DISL:PPTA:1,2017-07-03T03:00:00Z,30.2791,-87.5561,79.86,1111122 
DISL,ioos:station:DISL:PPTA:1,2017-07-03T03:30:00Z,30.2791,-87.5561,78.15,1111122 
DISL,ioos:station:DISL:PPTA:1,2017-07-03T04:00:00Z,30.2791,-87.5561,79.65,1111122 
DISL,ioos:station:DISL:PPTA:1,2017-07-03T04:30:00Z,30.2791,-87.5561,82.1,1111122 
DISL,ioos:station:DISL:PPTA:1,2017-07-03T05:00:00Z,30.2791,-87.5561,82.4,1111122 
DISL,ioos:station:DISL:PPTA:1,2017-07-03T05:30:00Z,30.2791,-87.5561,84.2,1111122 
DISL,ioos:station:DISL:PPTA:1,2017-07-03T06:00:00Z,30.2791,-87.5561,83.7,1111122 
DISL,ioos:station:DISL:PPTA:1,2017-07-03T06:30:00Z,30.2791,-87.5561,81.1,1111122 
DISL,ioos:station:DISL:PPTA:1,2017-07-03T07:00:00Z,30.2791,-87.5561,83.1,1111122 
DISL,ioos:station:DISL:PPTA:1,2017-07-03T07:30:00Z,30.2791,-87.5561,85.1,1111122 
DISL,ioos:station:DISL:PPTA:1,2017-07-03T08:00:00Z,30.2791,-87.5561,84.9,1111122 
DISL,ioos:station:DISL:PPTA:1,2017-07-03T08:30:00Z,30.2791,-87.5561,85.8,1111122 
DISL,ioos:station:DISL:PPTA:1,2017-07-03T09:00:00Z,30.2791,-87.5561,86.8,1111122 
DISL,ioos:station:DISL:PPTA:1,2017-07-03T09:30:00Z,30.2791,-87.5561,88.1,1111122 
DISL,ioos:station:DISL:PPTA:1,2017-07-03T10:00:00Z,30.2791,-87.5561,88.1,1111122 
DISL,ioos:station:DISL:PPTA:1,2017-07-03T10:30:00Z,30.2791,-87.5561,86.7,1111122 
DISL,ioos:station:DISL:PPTA:1,2017-07-03T11:00:00Z,30.2791,-87.5561,88.1,1111122 
DISL,ioos:station:DISL:PPTA:1,2017-07-03T11:30:00Z,30.2791,-87.5561,88.6,1111122 
DISL,ioos:station:DISL:PPTA:1,2017-07-03T12:00:00Z,30.2791,-87.5561,87.8,1111122 
DISL,ioos:station:DISL:PPTA:1,2017-07-03T12:30:00Z,30.2791,-87.5561,83.5,1111122 
DISL,ioos:station:DISL:PPTA:1,2017-07-03T13:00:00Z,30.2791,-87.5561,82.0,1111122 
DISL,ioos:station:DISL:PPTA:1,2017-07-03T13:30:00Z,30.2791,-87.5561,81.8,1111122 
DISL,ioos:station:DISL:PPTA:1,2017-07-03T14:00:00Z,30.2791,-87.5561,79.2,1111122 
DISL,ioos:station:DISL:PPTA:1,2017-07-03T14:30:00Z,30.2791,-87.5561,76.02,1111122 
DISL,ioos:station:DISL:PPTA:1,2017-07-03T15:00:00Z,30.2791,-87.5561,69.55,1111122 
DISL,ioos:station:DISL:PPTA:1,2017-07-03T15:30:00Z,30.2791,-87.5561,65.22,1111122 
DISL,ioos:station:DISL:PPTA:1,2017-07-03T16:00:00Z,30.2791,-87.5561,60.91,1111122 
DISL,ioos:station:DISL:PPTA:1,2017-07-03T16:30:00Z,30.2791,-87.5561,63.45,1111122 
DISL,ioos:station:DISL:PPTA:1,2017-07-03T17:00:00Z,30.2791,-87.5561,65.21,1111122 
DISL,ioos:station:DISL:PPTA:1,2017-07-03T17:30:00Z,30.2791,-87.5561,64.53,1111122 
DISL,ioos:station:DISL:PPTA:1,2017-07-03T18:00:00Z,30.2791,-87.5561,63.1,1111122 
DISL,ioos:station:DISL:PPTA:1,2017-07-03T18:30:00Z,30.2791,-87.5561,51.57,1111122 
DISL,ioos:station:DISL:PPTA:1,2017-07-03T19:00:00Z,30.2791,-87.5561,59.05,1111122 
DISL,ioos:station:DISL:PPTA:1,2017-07-03T19:30:00Z,30.2791,-87.5561,65.15,1111122 
DISL,ioos:station:DISL:PPTA:1,2017-07-03T20:00:00Z,30.2791,-87.5561,67.56,1111122 
DISL,ioos:station:DISL:PPTA:1,2017-07-03T20:30:00Z,30.2791,-87.5561,68.69,1111122 
DISL,ioos:station:DISL:PPTA:1,2017-07-03T21:00:00Z,30.2791,-87.5561,65.95,1111122 
DISL,ioos:station:DISL:PPTA:1,2017-07-03T21:30:00Z,30.2791,-87.5561,66.12,1111122 
DISL,ioos:station:DISL:PPTA:1,2017-07-03T22:00:00Z,30.2791,-87.5561,62.79,1111122 
DISL,ioos:station:DISL:PPTA:1,2017-07-03T22:30:00Z,30.2791,-87.5561,64.35,1111122 
DISL,ioos:station:DISL:PPTA:1,2017-07-03T23:00:00Z,30.2791,-87.5561,62.66,1111122 
DISL,ioos:station:DISL:PPTA:1,2017-07-03T23:30:00Z,30.2791,-87.5561,64.29,1111122 
DISL,ioos:station:DISL:PPTA:1,2017-07-04T00:00:00Z,30.2791,-87.5561,63.66,1111122 
DISL,ioos:station:DISL:PPTA:1,2017-07-04T00:30:00Z,30.2791,-87.5561,67.23,1111122 
DISL,ioos:station:DISL:PPTA:1,2017-07-04T01:00:00Z,30.2791,-87.5561,68.12,1111122 
DISL,ioos:station:DISL:PPTA:1,2017-07-04T01:30:00Z,30.2791,-87.5561,70.94,1111122 
DISL,ioos:station:DISL:PPTA:1,2017-07-04T02:00:00Z,30.2791,-87.5561,71.35,1111122 
DISL,ioos:station:DISL:PPTA:1,2017-07-04T02:30:00Z,30.2791,-87.5561,72.31,1111122 
DISL,ioos:station:DISL:PPTA:1,2017-07-04T03:00:00Z,30.2791,-87.5561,73.28,1111122 
DISL,ioos:station:DISL:PPTA:1,2017-07-04T03:30:00Z,30.2791,-87.5561,76.18,1111122 
DISL,ioos:station:DISL:PPTA:1,2017-07-04T04:00:00Z,30.2791,-87.5561,78.77,1111122 
DISL,ioos:station:DISL:PPTA:1,2017-07-04T04:30:00Z,30.2791,-87.5561,78.66,1111122 
DISL,ioos:station:DISL:PPTA:1,2017-07-04T05:00:00Z,30.2791,-87.5561,78.43,1111122 
DISL,ioos:station:DISL:PPTA:1,2017-07-04T05:30:00Z,30.2791,-87.5561,77.03,1111122 
DISL,ioos:station:DISL:PPTA:1,2017-07-04T06:00:00Z,30.2791,-87.5561,75.8,1111122 
DISL,ioos:station:DISL:PPTA:1,2017-07-04T06:30:00Z,30.2791,-87.5561,75.09,1111122 
DISL,ioos:station:DISL:PPTA:1,2017-07-04T07:00:00Z,30.2791,-87.5561,74.17,1111122 
DISL,ioos:station:DISL:PPTA:1,2017-07-04T07:30:00Z,30.2791,-87.5561,73.7,1111122 
DISL,ioos:station:DISL:PPTA:1,2017-07-04T08:00:00Z,30.2791,-87.5561,75.0,1111122 
DISL,ioos:station:DISL:PPTA:1,2017-07-04T08:30:00Z,30.2791,-87.5561,76.91,1111122 
DISL,ioos:station:DISL:PPTA:1,2017-07-04T09:00:00Z,30.2791,-87.5561,78.92,1111122 
DISL,ioos:station:DISL:PPTA:1,2017-07-04T09:30:00Z,30.2791,-87.5561,78.52,1111122 
DISL,ioos:station:DISL:PPTA:1,2017-07-04T10:00:00Z,30.2791,-87.5561,83.2,1111122 
DISL,ioos:station:DISL:PPTA:1,2017-07-04T10:30:00Z,30.2791,-87.5561,85.3,1111122 
DISL,ioos:station:DISL:PPTA:1,2017-07-04T11:00:00Z,30.2791,-87.5561,86.9,1111122 
DISL,ioos:station:DISL:PPTA:1,2017-07-04T11:30:00Z,30.2791,-87.5561,85.3,1111122 
DISL,ioos:station:DISL:PPTA:1,2017-07-04T12:00:00Z,30.2791,-87.5561,81.9,1111122 
DISL,ioos:station:DISL:PPTA:1,2017-07-04T12:30:00Z,30.2791,-87.5561,76.45,1111122 
DISL,ioos:station:DISL:PPTA:1,2017-07-04T13:00:00Z,30.2791,-87.5561,74.13,1111122 
DISL,ioos:station:DISL:PPTA:1,2017-07-04T13:30:00Z,30.2791,-87.5561,73.13,1111122 
DISL,ioos:station:DISL:PPTA:1,2017-07-04T14:00:00Z,30.2791,-87.5561,72.4,1111122 
DISL,ioos:station:DISL:PPTA:1,2017-07-04T14:30:00Z,30.2791,-87.5561,72.35,1111122 
DISL,ioos:station:DISL:PPTA:1,2017-07-04T15:00:00Z,30.2791,-87.5561,71.66,1111122 
DISL,ioos:station:DISL:PPTA:1,2017-07-04T15:30:00Z,30.2791,-87.5561,70.32,1111122 
DISL,ioos:station:DISL:PPTA:1,2017-07-04T16:00:00Z,30.2791,-87.5561,69.91,1111122 
DISL,ioos:station:DISL:PPTA:1,2017-07-04T16:30:00Z,30.2791,-87.5561,69.03,1111122 
DISL,ioos:station:DISL:PPTA:1,2017-07-04T17:00:00Z,30.2791,-87.5561,67.53,1111122 
DISL,ioos:station:DISL:PPTA:1,2017-07-04T17:30:00Z,30.2791,-87.5561,67.36,1111122 
DISL,ioos:station:DISL:PPTA:1,2017-07-04T18:00:00Z,30.2791,-87.5561,63.72,1111122 
DISL,ioos:station:DISL:PPTA:1,2017-07-04T18:30:00Z,30.2791,-87.5561,62.08,1111122 
DISL,ioos:station:DISL:PPTA:1,2017-07-04T19:00:00Z,30.2791,-87.5561,60.12,1111122 
DISL,ioos:station:DISL:PPTA:1,2017-07-04T19:30:00Z,30.2791,-87.5561,59.1,1111122 
DISL,ioos:station:DISL:PPTA:1,2017-07-04T20:00:00Z,30.2791,-87.5561,61.21,1111122 
DISL,ioos:station:DISL:PPTA:1,2017-07-04T20:30:00Z,30.2791,-87.5561,57.97,1111122 
DISL,ioos:station:DISL:PPTA:1,2017-07-04T21:00:00Z,30.2791,-87.5561,61.83,1111122 
DISL,ioos:station:DISL:PPTA:1,2017-07-04T21:30:00Z,30.2791,-87.5561,62.72,1111122 
DISL,ioos:station:DISL:PPTA:1,2017-07-04T22:00:00Z,30.2791,-87.5561,63.2,1111122 
DISL,ioos:station:DISL:PPTA:1,2017-07-04T22:30:00Z,30.2791,-87.5561,62.63,1111122 
DISL,ioos:station:DISL:PPTA:1,2017-07-04T23:00:00Z,30.2791,-87.5561,62.5,1111122 
DISL,ioos:station:DISL:PPTA:1,2017-07-04T23:30:00Z,30.2791,-87.5561,64.17,1111122 
DISL,ioos:station:DISL:PPTA:1,2017-07-05T00:00:00Z,30.2791,-87.5561,63.59,1111122 
DISL,ioos:station:DISL:PPTA:1,2017-07-05T00:30:00Z,30.2791,-87.5561,64.58,1111122 
DISL,ioos:station:DISL:PPTA:1,2017-07-05T01:00:00Z,30.2791,-87.5561,65.68,1111122 
DISL,ioos:station:DISL:PPTA:1,2017-07-05T01:30:00Z,30.2791,-87.5561,66.37,1111122 
DISL,ioos:station:DISL:PPTA:1,2017-07-05T02:00:00Z,30.2791,-87.5561,67.56,1111122 
DISL,ioos:station:DISL:PPTA:1,2017-07-05T02:30:00Z,30.2791,-87.5561,67.6,1111122 
DISL,ioos:station:DISL:PPTA:1,2017-07-05T03:00:00Z,30.2791,-87.5561,68.14,1111122 
DISL,ioos:station:DISL:PPTA:1,2017-07-05T03:30:00Z,30.2791,-87.5561,65.77,1111122 
DISL,ioos:station:DISL:PPTA:1,2017-07-05T04:00:00Z,30.2791,-87.5561,67.69,1111122 
DISL,ioos:station:DISL:PPTA:1,2017-07-05T04:30:00Z,30.2791,-87.5561,68.44,1111122 
DISL,ioos:station:DISL:PPTA:1,2017-07-05T05:00:00Z,30.2791,-87.5561,70.89,1111122 
DISL,ioos:station:DISL:PPTA:1,2017-07-05T05:30:00Z,30.2791,-87.5561,72.19,1111122 
DISL,ioos:station:DISL:PPTA:1,2017-07-05T06:00:00Z,30.2791,-87.5561,72.29,1111122 
DISL,ioos:station:DISL:PPTA:1,2017-07-05T06:30:00Z,30.2791,-87.5561,70.86,1111122 
DISL,ioos:station:DISL:PPTA:1,2017-07-05T07:00:00Z,30.2791,-87.5561,72.12,1111122 
DISL,ioos:station:DISL:PPTA:1,2017-07-05T07:30:00Z,30.2791,-87.5561,74.64,1111122 
DISL,ioos:station:DISL:PPTA:1,2017-07-05T08:00:00Z,30.2791,-87.5561,76.82,1111122 
DISL,ioos:station:DISL:PPTA:1,2017-07-05T08:30:00Z,30.2791,-87.5561,76.58,1111122 
DISL,ioos:station:DISL:PPTA:1,2017-07-05T09:00:00Z,30.2791,-87.5561,75.05,1111122 
DISL,ioos:station:DISL:PPTA:1,2017-07-05T09:30:00Z,30.2791,-87.5561,74.88,1111122 
DISL,ioos:station:DISL:PPTA:1,2017-07-05T10:00:00Z,30.2791,-87.5561,76.45,1111122 
DISL,ioos:station:DISL:PPTA:1,2017-07-05T10:30:00Z,30.2791,-87.5561,77.24,1111122 
DISL,ioos:station:DISL:PPTA:1,2017-07-05T11:00:00Z,30.2791,-87.5561,78.1,1111122 
DISL,ioos:station:DISL:PPTA:1,2017-07-05T11:30:00Z,30.2791,-87.5561,76.22,1111122 
DISL,ioos:station:DISL:PPTA:1,2017-07-05T12:00:00Z,30.2791,-87.5561,74.06,1111122 
DISL,ioos:station:DISL:PPTA:1,2017-07-05T12:30:00Z,30.2791,-87.5561,73.01,1111122 
DISL,ioos:station:DISL:PPTA:1,2017-07-05T13:00:00Z,30.2791,-87.5561,74.38,1111122 
DISL,ioos:station:DISL:PPTA:1,2017-07-05T13:30:00Z,30.2791,-87.5561,72.18,1111122 
DISL,ioos:station:DISL:PPTA:1,2017-07-05T14:00:00Z,30.2791,-87.5561,72.3,1111122 
DISL,ioos:station:DISL:PPTA:1,2017-07-05T14:30:00Z,30.2791,-87.5561,71.44,1111122 
DISL,ioos:station:DISL:PPTA:1,2017-07-05T15:00:00Z,30.2791,-87.5561,67.39,1111122 
DISL,ioos:station:DISL:PPTA:1,2017-07-05T15:30:00Z,30.2791,-87.5561,66.64,1111122 
DISL,ioos:station:DISL:PPTA:1,2017-07-05T16:00:00Z,30.2791,-87.5561,67.24,1111122 
DISL,ioos:station:DISL:PPTA:1,2017-07-05T16:30:00Z,30.2791,-87.5561,69.02,1111122 
DISL,ioos:station:DISL:PPTA:1,2017-07-05T17:00:00Z,30.2791,-87.5561,69.16,1111122 
DISL,ioos:station:DISL:PPTA:1,2017-07-05T17:30:00Z,30.2791,-87.5561,67.53,1111122 
DISL,ioos:station:DISL:PPTA:1,2017-07-05T18:00:00Z,30.2791,-87.5561,65.49,1111122 
DISL,ioos:station:DISL:PPTA:1,2017-07-05T18:30:00Z,30.2791,-87.5561,67.29,1111122 
DISL,ioos:station:DISL:PPTA:1,2017-07-05T19:00:00Z,30.2791,-87.5561,65.04,1111122 
DISL,ioos:station:DISL:PPTA:1,2017-07-05T19:30:00Z,30.2791,-87.5561,64.94,1111122 
DISL,ioos:station:DISL:PPTA:1,2017-07-05T20:00:00Z,30.2791,-87.5561,64.03,1111122 
DISL,ioos:station:DISL:PPTA:1,2017-07-05T20:30:00Z,30.2791,-87.5561,65.57,1111122 
DISL,ioos:station:DISL:PPTA:1,2017-07-05T21:00:00Z,30.2791,-87.5561,65.88,1111122 
DISL,ioos:station:DISL:PPTA:1,2017-07-05T21:30:00Z,30.2791,-87.5561,66.67,1111122 
DISL,ioos:station:DISL:PPTA:1,2017-07-05T22:00:00Z,30.2791,-87.5561,64.05,1111122 
DISL,ioos:station:DISL:PPTA:1,2017-07-05T22:30:00Z,30.2791,-87.5561,63.1,1111122 
DISL,ioos:station:DISL:PPTA:1,2017-07-05T23:00:00Z,30.2791,-87.5561,64.23,1111122 
DISL,ioos:station:DISL:PPTA:1,2017-07-05T23:30:00Z,30.2791,-87.5561,61.81,1111122 
DISL,ioos:station:DISL:PPTA:1,2017-07-06T00:00:00Z,30.2791,-87.5561,64.99,1111122 
DISL,ioos:station:DISL:PPTA:1,2017-07-06T00:30:00Z,30.2791,-87.5561,69.28,1111122 
DISL,ioos:station:DISL:PPTA:1,2017-07-06T01:00:00Z,30.2791,-87.5561,70.71,1111122 
DISL,ioos:station:DISL:PPTA:1,2017-07-06T01:30:00Z,30.2791,-87.5561,69.81,1111122 
DISL,ioos:station:DISL:PPTA:1,2017-07-06T02:00:00Z,30.2791,-87.5561,71.96,1111122 
DISL,ioos:station:DISL:PPTA:1,2017-07-06T02:30:00Z,30.2791,-87.5561,70.32,1111122 
DISL,ioos:station:DISL:PPTA:1,2017-07-06T03:00:00Z,30.2791,-87.5561,71.55,1111122 
DISL,ioos:station:DISL:PPTA:1,2017-07-06T03:30:00Z,30.2791,-87.5561,71.31,1111122 
DISL,ioos:station:DISL:PPTA:1,2017-07-06T04:00:00Z,30.2791,-87.5561,72.5,1111122 
DISL,ioos:station:DISL:PPTA:1,2017-07-06T04:30:00Z,30.2791,-87.5561,72.58,1111122 
DISL,ioos:station:DISL:PPTA:1,2017-07-06T05:00:00Z,30.2791,-87.5561,72.73,1111122 
DISL,ioos:station:DISL:PPTA:1,2017-07-06T05:30:00Z,30.2791,-87.5561,74.13,1111122 
DISL,ioos:station:DISL:PPTA:1,2017-07-06T06:00:00Z,30.2791,-87.5561,74.37,1111122 
DISL,ioos:station:DISL:PPTA:1,2017-07-06T06:30:00Z,30.2791,-87.5561,75.15,1111122 
DISL,ioos:station:DISL:PPTA:1,2017-07-06T07:00:00Z,30.2791,-87.5561,76.01,1111122 
DISL,ioos:station:DISL:PPTA:1,2017-07-06T07:30:00Z,30.2791,-87.5561,76.28,1111122 
DISL,ioos:station:DISL:PPTA:1,2017-07-06T08:00:00Z,30.2791,-87.5561,74.81,1111122 
DISL,ioos:station:DISL:PPTA:1,2017-07-06T08:30:00Z,30.2791,-87.5561,72.6,1111122 
DISL,ioos:station:DISL:PPTA:1,2017-07-06T09:00:00Z,30.2791,-87.5561,72.15,1111122 
DISL,ioos:station:DISL:PPTA:1,2017-07-06T09:30:00Z,30.2791,-87.5561,71.95,1111122 
DISL,ioos:station:DISL:PPTA:1,2017-07-06T10:00:00Z,30.2791,-87.5561,73.14,1111122 
DISL,ioos:station:DISL:PPTA:1,2017-07-06T10:30:00Z,30.2791,-87.5561,76.69,1111122 
DISL,ioos:station:DISL:PPTA:1,2017-07-06T11:00:00Z,30.2791,-87.5561,79.11,1111122 
DISL,ioos:station:DISL:PPTA:1,2017-07-06T11:30:00Z,30.2791,-87.5561,78.56,1111122 
DISL,ioos:station:DISL:PPTA:1,2017-07-06T12:00:00Z,30.2791,-87.5561,79.04,1111122 
DISL,ioos:station:DISL:PPTA:1,2017-07-06T12:30:00Z,30.2791,-87.5561,74.79,1111122 
DISL,ioos:station:DISL:PPTA:1,2017-07-06T13:00:00Z,30.2791,-87.5561,70.95,1111122 
DISL,ioos:station:DISL:PPTA:1,2017-07-06T13:30:00Z,30.2791,-87.5561,70.01,1111122 
DISL,ioos:station:DISL:PPTA:1,2017-07-06T14:00:00Z,30.2791,-87.5561,69.25,1111122 
DISL,ioos:station:DISL:PPTA:1,2017-07-06T14:30:00Z,30.2791,-87.5561,72.69,1111122 
DISL,ioos:station:DISL:PPTA:1,2017-07-06T15:00:00Z,30.2791,-87.5561,65.85,1111122 
DISL,ioos:station:DISL:PPTA:1,2017-07-06T15:30:00Z,30.2791,-87.5561,64.45,1111122 
DISL,ioos:station:DISL:PPTA:1,2017-07-06T16:00:00Z,30.2791,-87.5561,70.61,1111122 
DISL,ioos:station:DISL:PPTA:1,2017-07-06T16:30:00Z,30.2791,-87.5561,69.47,1111122 
DISL,ioos:station:DISL:PPTA:1,2017-07-06T17:00:00Z,30.2791,-87.5561,68.55,1111122 
DISL,ioos:station:DISL:PPTA:1,2017-07-06T17:30:00Z,30.2791,-87.5561,66.75,1111122 
DISL,ioos:station:DISL:PPTA:1,2017-07-06T18:00:00Z,30.2791,-87.5561,62.42,1111122 
DISL,ioos:station:DISL:PPTA:1,2017-07-06T18:30:00Z,30.2791,-87.5561,62.63,1111122 
DISL,ioos:station:DISL:PPTA:1,2017-07-06T19:00:00Z,30.2791,-87.5561,63.04,1111122 
DISL,ioos:station:DISL:PPTA:1,2017-07-06T19:30:00Z,30.2791,-87.5561,60.59,1111122 
DISL,ioos:station:DISL:PPTA:1,2017-07-06T20:00:00Z,30.2791,-87.5561,59.67,1111122 
DISL,ioos:station:DISL:PPTA:1,2017-07-06T20:30:00Z,30.2791,-87.5561,58.14,1111122 
DISL,ioos:station:DISL:PPTA:1,2017-07-06T21:00:00Z,30.2791,-87.5561,60.8,1111122 
DISL,ioos:station:DISL:PPTA:1,2017-07-06T21:30:00Z,30.2791,-87.5561,60.13,1111122 
DISL,ioos:station:DISL:PPTA:1,2017-07-06T22:00:00Z,30.2791,-87.5561,58.15,1111122 
DISL,ioos:station:DISL:PPTA:1,2017-07-06T22:30:00Z,30.2791,-87.5561,58.63,1111122 
DISL,ioos:station:DISL:PPTA:1,2017-07-06T23:00:00Z,30.2791,-87.5561,57.88,1111122 
DISL,ioos:station:DISL:PPTA:1,2017-07-06T23:30:00Z,30.2791,-87.5561,58.98,1111122 
DISL,ioos:station:DISL:PPTA:1,2017-07-07T00:00:00Z,30.2791,-87.5561,60.75,1111122 